Edinburgh Airport, United Kingdom

11:55 PM GMT on November 21, 2017 (GMT +0000)
Edinburgh Airport

Weather History for EGPH - November, 2011

Change the Weather History Date:

Tuesday, November 8, 2011

  Actual Average Record
Temperature  
Mean Temperature 46 °F -  
Max Temperature 51 °F 47 °F 59 °F (1998)
Min Temperature 41 °F 35 °F 26 °F (2017)
Degree Days  
Heating Degree Days 19    
Moisture  
Dew Point 47 °F    
Average Humidity 94    
Maximum Humidity 100    
Minimum Humidity 87    
Precipitation  
Precipitation 0.00 in 0.08 in - ()
Sea Level Pressure  
Sea Level Pressure 30.03 in    
Wind  
Wind Speed 6 mph ()    
Max Wind Speed 12 mph    
Max Gust Speed -    
Visibility 4.0 miles    
Events Rain    
Averages and records for this station are not official NWS values.
T = Trace of Precipitation, MM = Missing Value Source: Averaged Metar Reports

Daily Weather History Graph

Daily Weather History Graph

Search for Another Location

Airport or City:

Trip Planner

Search our weather history database for the weather conditions in past years. The results will help you decide how hot, cold, wet, or windy it might be!

Date:

Astronomy

Nov. 08, 2011 Rise Set
Actual Time 7:34 AM GMT 4:19 PM GMT
Civil Twilight 6:53 AM GMT 5:00 PM GMT
Nautical Twilight 6:08 AM GMT 5:44 PM GMT
Astronomical Twilight 5:25 AM GMT 6:27 PM GMT
Moon 3:02 PM GMT (11/8) 5:04 AM GMT (11/8)
Length of Visible Light 10h 06m
Length of Day
8h 45m
Waxing Gibbous, 95% of the Moon is Illuminated
Nov 8
Waxing Gibbous
Nov 10
Full
Nov 18
Last Quarter
Nov 25
New
Dec 2
First Quarter

Hourly Weather History & Observations

Time (GMT) Temp. Windchill Dew Point Humidity Pressure Visibility Wind Dir Wind Speed Gust Speed Precip Events Conditions
12:20 AM 41.0 °F - 41.0 °F 100% 30.15 in 6.2 mi Calm Calm - N/A   Mostly Cloudy
12:50 AM 41.0 °F - 41.0 °F 100% 30.15 in 6.2 mi Calm Calm - N/A   Mostly Cloudy
1:20 AM 42.8 °F - 42.8 °F 100% 30.15 in 6.2 mi Variable 2.3 mph - N/A   Mostly Cloudy
1:50 AM 42.8 °F 41.1 °F 42.8 °F 100% 30.15 in 6.2 mi Variable 3.5 mph - N/A   Mostly Cloudy
2:20 AM 46.4 °F 42.4 °F 46.4 °F 100% 30.12 in 6.2 mi East 8.1 mph - N/A   Mostly Cloudy
2:50 AM 46.4 °F 42.4 °F 44.6 °F 93% 30.12 in 5.6 mi ENE 8.1 mph - N/A   Overcast
3:20 AM 46.4 °F 42.4 °F 44.6 °F 93% 30.12 in 6.2 mi ENE 8.1 mph - N/A   Overcast
3:50 AM 48.2 °F - 46.4 °F 93% 30.12 in 5.0 mi ENE 5.8 mph - N/A   Overcast
4:20 AM 48.2 °F - 46.4 °F 93% 30.09 in 6.2 mi ENE 8.1 mph - N/A   Light Drizzle
4:50 AM 48.2 °F - 46.4 °F 93% 30.09 in 5.0 mi ENE 8.1 mph - N/A   Light Drizzle
5:20 AM 48.2 °F - 46.4 °F 93% 30.09 in 5.0 mi ENE 8.1 mph - N/A   Light Drizzle
5:50 AM 48.2 °F - 46.4 °F 93% 30.06 in 5.0 mi ENE 9.2 mph - N/A   Light Drizzle
6:20 AM 48.2 °F - 46.4 °F 93% 30.06 in 5.6 mi ENE 9.2 mph - N/A   Light Drizzle
6:50 AM 48.2 °F - 48.2 °F 100% 30.06 in 5.0 mi ENE 8.1 mph - N/A   Light Drizzle
7:20 AM 48.2 °F - 46.4 °F 93% 30.06 in 5.0 mi ENE 8.1 mph - N/A   Light Drizzle
7:50 AM 48.2 °F - 48.2 °F 100% 30.06 in 5.0 mi ENE 8.1 mph - N/A   Overcast
8:20 AM 48.2 °F - 48.2 °F 100% 30.06 in 3.1 mi ENE 8.1 mph - N/A   Overcast
8:50 AM 48.2 °F - 48.2 °F 100% 30.06 in 2.8 mi ENE 9.2 mph - N/A   Overcast
9:20 AM 50.0 °F - 48.2 °F 94% 30.06 in 1.9 mi ENE 9.2 mph - N/A   Light Drizzle
9:50 AM 50.0 °F - 48.2 °F 94% 30.06 in 1.9 mi East 9.2 mph - N/A   Light Drizzle
10:20 AM 50.0 °F - 48.2 °F 94% 30.06 in - ENE 8.1 mph - N/A   Overcast
10:50 AM 50.0 °F - 50.0 °F 100% 30.06 in 1.6 mi ENE 9.2 mph - N/A   Overcast
11:20 AM 50.0 °F - 50.0 °F 100% 30.04 in 1.4 mi ENE 8.1 mph - N/A   Light Drizzle
11:50 AM 50.0 °F - 50.0 °F 100% 30.04 in 1.6 mi ENE 10.4 mph - N/A   Overcast
12:20 PM 50.0 °F - 50.0 °F 100% 30.01 in 1.7 mi ENE 9.2 mph - N/A   Overcast
12:50 PM 50.0 °F - 50.0 °F 100% 30.01 in - ENE 10.4 mph - N/A Rain Light Rain
1:20 PM 50.0 °F - 50.0 °F 100% 30.01 in 3.7 mi ENE 10.4 mph - N/A   Overcast
1:50 PM 51.8 °F - 48.2 °F 88% 30.01 in 3.7 mi East 11.5 mph - N/A   Light Drizzle
2:20 PM 51.8 °F - 48.2 °F 88% 29.98 in 3.7 mi East 6.9 mph - N/A   Light Drizzle
2:50 PM 51.8 °F - 48.2 °F 88% 29.98 in 3.7 mi East 11.5 mph - N/A   Light Drizzle
3:20 PM 51.8 °F - 48.2 °F 88% 29.98 in 3.7 mi East 11.5 mph - N/A   Light Drizzle
3:50 PM 51.8 °F - 48.2 °F 88% 29.98 in 3.7 mi East 10.4 mph - N/A   Light Drizzle
4:20 PM 50.0 °F - 48.2 °F 94% 29.98 in 3.1 mi Variable 3.5 mph - N/A   Overcast
4:50 PM 50.0 °F - 48.2 °F 94% 29.98 in 2.8 mi ENE 8.1 mph - N/A   Drizzle
5:20 PM 50.0 °F - 46.4 °F 87% 29.98 in - ENE 8.1 mph - N/A   Light Drizzle
5:50 PM 50.0 °F - 46.4 °F 87% 29.98 in 2.5 mi ENE 6.9 mph - N/A   Light Drizzle
6:20 PM 50.0 °F - 46.4 °F 87% 29.98 in 3.1 mi ENE 5.8 mph - N/A   Light Drizzle
6:50 PM 50.0 °F - 46.4 °F 87% 29.98 in 3.1 mi NE 4.6 mph - N/A   Light Drizzle
7:20 PM 50.0 °F - 46.4 °F 87% 29.98 in - ENE 6.9 mph - N/A   Light Drizzle
7:50 PM 50.0 °F - 46.4 °F 87% 29.98 in - ENE 5.8 mph - N/A   Light Drizzle
8:20 PM 50.0 °F - 46.4 °F 87% 29.98 in - ENE 8.1 mph - N/A   Light Drizzle
8:50 PM 50.0 °F - 48.2 °F 94% 29.95 in - East 9.2 mph - N/A   Light Drizzle
9:20 PM 50.0 °F - 48.2 °F 94% 29.95 in - East 10.4 mph - N/A   Light Drizzle
9:50 PM 50.0 °F - 48.2 °F 94% 29.95 in - ENE 10.4 mph - N/A   Light Drizzle
10:20 PM 50.0 °F - 48.2 °F 94% 29.95 in - ENE 10.4 mph - N/A   Light Drizzle
10:50 PM 50.0 °F - 48.2 °F 94% 29.92 in 2.5 mi ENE 9.2 mph - N/A   Light Drizzle
11:20 PM 50.0 °F - 48.2 °F 94% 29.92 in - ENE 8.1 mph - N/A   Mostly Cloudy
11:50 PM 50.0 °F - 48.2 °F 94% 29.92 in - ENE 8.1 mph - N/A   Overcast